SCP
0 0 0 0 0 0 0 0 0 0 0 0 0 0 0 0 0 0 0 0 0 0 0 0 0 0 0 0 0 0 0 0 0 0 0 0 0 0
0 0 0 0 0 0 0 0 0 0 0 0 0 0 0 0 0 0 0 0 0 0 0 0 0 0 0 0 0 0 0 0 0 0 0 0 0 0
0 0 0 0 0 0 0 0 0 0 0 0 0 0 0 0 0 0 0 0 0 0 0 0 0 0 0 0 0 0 0 0 0 0 0 0 0 0
0 0 0 0 0 0 0 0 0 0 0 0 0 0 0 0 0 0 0 0 0 0 0 0 0 0 0 0 0 0 0 0 0 0 0 0 0 0
0 0 0 0 0 0 0 0 0 0 0 0 0 0 0 0 0 0 0 0 0 0 0 0 0 0 0 0 0 0 0 0 0 0 0 0 0 0
0 0 0 0 0 0 0 0 0 0 0 0 0 0 0 0 0 0 0 0 0 0 0 0 0 0 0 0 0 0 0 0 0 0 0 0 0 0
0 0 0 0 0 0 0 0 0 0 0 0 0 0 0 0 0 0 0 0 0 0 0 0 0 0 0 0 0 0 0 0 0 0 0 0 0 0
0 0 0 0 0 0 0 0 0 0 0 0 0 0 0 0 0 0 0 0 0 0 0 0 0 0 0 0 0 0 0 0 0 0 0 0 0 0
0 0 0 0 0 0 0 0 0 0 0 0 0 0 0 0 0 0 0 0 0 0 0 0 0 0 0 0 0 0 0 0 0 0 0 0 0 0
0 0 0 0 0 0 0 0 0 0 0 0 0 0 0 0 0 0 0 0 0 0 0 0 0 0 0 0 0 0 0 0 0 0 0 0 0 0
0 0 0 0 0 0 0 0 0 0 0 0 0 0 0 0 0 0 0 0 0 0 0 0 0 0 0 0 0 0 0 0 0 0 0 0 0 0
0 0 0 0 0 0 0 0 0 0 0 0 0 0 0 0 0 0 0 0 0 0 0 0 0 0 0 0 0 0 0 0 0 0 0 0 0 0
0 0 0 0 0 0 0 0 0 0 0 0 0 0 0 0 0 0 0 0 0 0 0 0 0 0 0 0 0 0 0 0 0 0 0 0 0 0
0 0 0 0 0 0 0 0 0 0 0 0 0 0 0 0 0 0 0 0 0 0 0 0 0 0 0 0 0 0 0 0 0 0 0 0 0 0
0 0 0 0 0 0 0 0 0 0 0 0 0 0 0 0 0 0 0 0 0 0 0 0 0 0 0 0 0 0 0 0 0 0 0 0 0 0
0 0 0 0 0 0 0 0 0 0 0 0 0 0 0 0 0 0 0 0 0 0 0 0 0 0 0 0 0 0 0 0 0 0 0 0 0 0
0 0 0 0 0 0 0 0 0 0 0 0 0 0 0 0 0 0 0 0 0 0 0 0 0 0 0 0 0 0 0 0 0 0 0 0 0 0
0 0 0 0 0 0 0 0 0 0 0 0 0 0 0 0 0 0 0 0 0 0 0 0 0 0 0 0 0 0 0 0 0 0 0 0 0 0
0 0 0 0 0 0 0 0 0 0 0 0 0 0 0 0 0 0 0 0 0 0 0 0 0 0 0 0 0 0 0 0 0 0 0 0 0 0
0 0 0 0 0 0 0 0 0 0 0 0 0 0 0 0 0 0 0 0 0 0 0 0 0 0 0 0 0 0 0 0 0 0 0 0 0 0
0 0 0 0 0 0 0 0 0 0 0 0 0 0 0 0 0 0 0 0 0 0 0 0 0 0 0 0 0 0 0 0 0 0 0 0 0 0
0 0 0 0 0 0 0 0 0 0 0 0 0 0 0 0 0 0 0 0 0 0 0 0 0 0 0 0 0 0 0 0 0 0 0 0 0 0
0 0 0 0 0 0 0 0 0 0 0 0 0 0 0 0 0 0 0 0 0 0 0 0 0 0 0 0 0 0 0 0 0 0 0 0 0 0
Wind_Speed
3 3 3 2 2 2 2 2 3 3 4 3 2 2 2 2 4 3 3 6 8 8 8 8 8 8 8 8 8 8 8 8 9 9 10 11 12 12
2 3 2 2 2 2 2 2 3 4 5 3 4 3 3 4 5 3 4 8 8 8 8 8 8 7 7 7 8 8 8 9 9 10 10 11 11 12
2 2 3 3 3 2 2 2 3 3 5 5 3 3 3 4 4 3 3 3 4 8 8 8 7 7 7 7 8 8 8 9 10 11 11 11 12 12
2 2 3 3 3 3 3 3 3 4 4 6 4 3 4 3 3 4 4 4 4 7 9 8 7 7 7 8 8 8 8 8 9 10 11 12 12 12
3 3 4 3 4 3 4 4 3 3 4 4 5 3 3 3 3 4 4 4 4 6 8 8 8 8 8 7 8 8 8 8 9 10 10 11 12 13
4 4 4 4 4 4 4 4 4 4 3 4 4 3 3 3 2 3 4 3 4 4 6 6 7 8 8 8 8 8 8 9 9 10 10 11 11 12
4 4 4 6 7 5 4 4 4 4 3 4 4 3 3 2 3 3 4 4 4 3 3 4 4 3 4 7 8 8 8 9 9 10 10 11 11 11
4 4 4 5 7 8 9 9 7 5 5 4 4 5 5 4 4 3 3 3 4 2 2 4 2 4 4 4 7 8 8 8 9 9 10 10 11 11
4 4 4 5 6 4 7 8 7 8 8 6 6 6 5 5 4 4 4 5 5 3 2 5 3 5 4 5 9 9 8 8 8 9 9 10 11 10
4 4 4 4 5 5 4 4 5 5 6 5 5 5 5 5 5 5 5 5 4 3 2 4 3 4 4 4 8 8 7 7 8 9 9 10 9 9
4 4 4 4 8 8 4 4 5 5 6 7 7 7 8 8 5 2 3 3 5 3 2 3 2 3 3 3 5 7 7 8 8 9 9 8 8 8
3 4 7 7 9 8 4 4 5 5 3 3 4 5 4 5 5 3 3 4 3 3 2 2 1 1 3 2 2 2 3 6 8 8 8 8 8 4
3 3 4 9 10 9 6 4 6 5 3 3 3 3 2 2 3 3 3 4 4 4 2 1 2 2 2 3 3 2 2 2 3 4 6 8 8 5
4 3 4 8 9 8 6 7 7 5 2 2 3 3 3 3 3 3 4 4 4 5 4 3 3 3 2 3 3 2 2 2 2 2 2 6 6 7
3 6 8 8 7 5 7 7 5 3 2 3 4 4 3 3 3 2 3 3 3 3 3 3 3 3 3 3 3 2 3 3 2 2 2 2 3 3
3 5 7 7 6 6 5 4 3 3 3 3 4 3 2 2 2 2 2 2 2 2 2 2 3 3 3 4 3 4 3 3 2 2 2 3 3 3
3 2 2 2 2 2 2 2 2 2 3 3 3 3 3 3 3 2 2 2 2 3 2 1 1 2 3 3 3 4 3 3 3 2 2 4 4 3
3 2 2 3 3 3 3 3 3 3 3 3 3 3 3 3 3 2 2 2 3 3 3 2 1 1 2 2 5 4 3 3 3 3 3 4 5 4
2 2 3 3 3 3 3 3 3 3 3 3 3 3 3 3 3 3 2 3 3 3 3 2 2 2 3 4 3 3 3 3 3 3 3 3 5 5
2 3 3 3 3 3 3 3 3 3 3 3 3 3 3 3 3 3 3 4 4 3 3 2 3 3 4 4 3 4 5 4 3 4 3 3 4 7
2 3 3 3 3 3 4 4 4 4 4 3 3 4 3 3 4 4 4 5 4 3 4 4 4 5 2 1 2 3 3 5 5 4 3 3 4 4
3 3 3 3 3 3 3 3 4 4 4 4 4 4 3 3 4 4 4 3 3 3 4 3 2 2 2 3 4 4 4 4 5 7 6 6 4 3
3 3 3 3 3 3 3 4 4 4 4 4 4 3 3 3 3 3 3 3 3 3 3 3 2 2 2 3 3 3 4 5 3 3 4 6 8 9
Wind_Direction
231 234 232 228 221 224 214 202 216 256 273 265 274 276 280 277 292 284 282 293 294 293 291 287 283 279 278 276 276 275 273 273 274 271 271 271 272 272
248 239 242 243 238 226 221 224 226 234 257 258 255 272 281 287 291 287 279 298 292 288 286 286 282 278 278 279 273 276 279 278 277 276 274 273 273 272
268 256 254 252 244 240 235 233 235 232 252 270 265 273 273 280 294 289 287 279 281 286 286 284 284 283 280 279 279 278 280 282 281 276 275 275 272 272
258 261 263 261 251 247 243 242 241 238 243 268 276 274 269 275 280 284 293 294 280 282 283 282 280 279 280 277 276 279 281 283 283 283 279 275 274 271
242 245 253 255 255 251 246 246 247 251 244 254 269 270 273 280 286 288 288 282 286 287 285 282 280 280 283 282 277 277 280 283 284 283 281 282 278 277
243 241 245 245 248 252 248 243 246 252 251 253 262 269 270 277 271 280 290 281 284 292 286 284 283 283 282 280 281 281 279 278 279 282 282 280 282 283
253 251 252 259 261 260 260 246 240 242 245 252 259 269 272 282 269 264 274 287 282 268 274 277 276 270 271 274 275 275 275 275 280 284 284 282 280 280
254 261 267 266 272 274 274 268 256 246 243 243 255 254 258 259 264 269 276 288 282 260 262 275 260 261 264 258 274 280 281 281 282 284 286 285 283 282
246 256 269 272 279 271 275 279 273 268 259 251 249 252 256 254 253 261 260 263 261 262 269 271 258 258 261 269 277 280 283 288 292 293 293 290 287 281
243 244 253 263 271 277 268 271 267 266 264 253 249 257 260 260 248 252 258 269 274 263 234 260 259 259 274 267 270 273 285 293 297 297 297 294 293 290
251 251 257 257 272 283 279 273 276 277 281 273 270 270 273 274 274 267 266 275 276 262 225 247 268 281 276 262 265 278 287 293 298 298 299 300 301 301
260 256 261 268 272 278 261 255 268 273 280 291 288 289 284 278 279 255 249 266 280 269 226 239 265 310 296 271 262 273 275 284 293 297 301 304 305 304
262 264 264 274 278 279 278 257 266 279 268 264 269 276 278 272 268 257 246 246 255 259 244 231 257 252 257 287 295 279 267 276 281 279 291 298 299 296
260 264 270 281 285 286 285 279 283 287 273 266 264 265 267 270 271 266 260 254 251 253 247 223 233 236 252 273 280 290 289 272 265 273 282 295 294 294
270 279 285 288 291 286 282 285 285 270 265 266 264 263 260 264 272 278 279 274 276 268 249 232 231 238 237 251 267 273 290 283 260 266 282 285 280 281
278 278 287 290 292 288 288 288 280 261 261 257 264 268 271 270 270 271 274 278 286 294 276 248 239 231 244 253 251 264 259 264 276 281 282 281 279 266
273 264 262 276 280 285 290 287 279 274 273 269 266 270 271 269 271 270 263 271 269 276 290 291 262 250 245 239 253 253 255 260 257 268 280 285 277 265
273 250 259 263 267 274 279 283 277 271 268 267 264 261 260 258 263 263 258 253 262 265 264 262 287 318 325 290 234 238 245 260 269 264 259 274 282 276
257 252 259 265 268 268 268 272 275 271 266 263 264 261 258 256 256 256 253 257 261 263 263 247 234 239 265 282 277 232 238 265 274 274 264 262 272 279
250 253 260 266 268 268 269 270 274 275 268 261 259 259 256 254 255 252 248 249 257 262 265 252 234 235 247 262 272 276 267 251 252 267 276 279 273 277
259 257 259 262 263 264 266 268 267 267 268 266 261 258 254 253 253 250 248 256 260 254 257 259 250 269 272 262 277 282 277 273 274 267 270 279 285 280
257 259 262 262 261 261 263 264 267 267 264 262 262 261 256 251 253 256 253 252 252 250 255 265 263 259 242 242 258 274 287 291 292 292 277 263 254 251
260 261 263 263 262 260 258 260 263 266 265 263 260 258 256 252 251 251 253 250 249 249 255 261 261 254 252 247 253 267 276 288 299 307 301 295 281 272